Time,TemperatureF,DewpointF,PressureIn,WindDirection,WindDirectionDegrees,WindSpeedMPH,WindSpeedGustMPH,Humidity,HourlyPrecipIn,Conditions,Clouds,dailyrainin,SoftwareType,DateUTC
2013-03-27 00:05:00,32.8,23.0,30.11,South,179,0.0,7.0,67,0.00,,,0.00,weatherlink.com 1.10,2013-03-27 05:05:00,
2013-03-27 00:21:00,32.4,23.0,30.11,South,182,3.0,4.0,68,0.00,,,0.00,weatherlink.com 1.10,2013-03-27 05:21:00,
2013-03-27 00:36:00,31.9,23.0,30.11,SSE,148,0.0,4.0,70,0.00,,,0.00,weatherlink.com 1.10,2013-03-27 05:36:00,
2013-03-27 00:51:00,31.4,23.0,30.12,SSE,166,1.0,3.0,72,0.00,,,0.00,weatherlink.com 1.10,2013-03-27 05:51:00,
2013-03-27 01:06:00,30.9,24.0,30.13,South,177,0.0,4.0,74,0.00,,,0.00,weatherlink.com 1.10,2013-03-27 06:06:00,
2013-03-27 01:21:00,30.4,23.0,30.13,South,177,0.0,1.0,75,0.00,,,0.00,weatherlink.com 1.10,2013-03-27 06:21:00,
2013-03-27 02:06:00,29.4,23.0,30.12,SSE,167,0.0,2.0,78,0.00,,,0.00,weatherlink.com 1.10,2013-03-27 07:06:00,
2013-03-27 02:51:00,28.8,23.0,30.11,SSE,167,0.0,3.0,80,0.00,,,0.00,weatherlink.com 1.10,2013-03-27 07:51:00,
2013-03-27 03:21:00,28.3,23.0,30.11,SSE,167,0.0,3.0,80,0.00,,,0.00,weatherlink.com 1.10,2013-03-27 08:21:00,
2013-03-27 03:36:00,27.9,23.0,30.10,SSE,167,0.0,3.0,80,0.00,,,0.00,weatherlink.com 1.10,2013-03-27 08:36:00,
2013-03-27 03:51:00,27.8,23.0,30.10,South,186,0.0,5.0,81,0.00,,,0.00,weatherlink.com 1.10,2013-03-27 08:51:00,
2013-03-27 04:07:00,27.8,23.0,30.09,South,173,1.0,4.0,81,0.00,,,0.00,weatherlink.com 1.10,2013-03-27 09:07:00,
2013-03-27 04:21:00,27.8,22.0,30.09,South,172,0.0,3.0,80,0.00,,,0.00,weatherlink.com 1.10,2013-03-27 09:21:00,
2013-03-27 04:51:00,28.3,23.0,30.08,South,190,0.0,6.0,79,0.00,,,0.00,weatherlink.com 1.10,2013-03-27 09:51:00,
2013-03-27 05:06:00,28.2,22.0,30.08,South,172,3.0,6.0,79,0.00,,,0.00,weatherlink.com 1.10,2013-03-27 10:06:00,
2013-03-27 05:21:00,28.0,22.0,30.09,SSE,166,0.0,5.0,79,0.00,,,0.00,weatherlink.com 1.10,2013-03-27 10:21:00,
2013-03-27 05:36:00,27.6,22.0,30.09,SSE,166,0.0,4.0,80,0.00,,,0.00,weatherlink.com 1.10,2013-03-27 10:36:00,
2013-03-27 05:51:00,27.4,22.0,30.09,SE,129,2.0,4.0,80,0.00,,,0.00,weatherlink.com 1.10,2013-03-27 10:51:00,
2013-03-27 06:06:00,27.3,22.0,30.09,SE,134,2.0,4.0,80,0.00,,,0.00,weatherlink.com 1.10,2013-03-27 11:06:00,
2013-03-27 06:21:00,27.2,22.0,30.09,SSE,167,0.0,4.0,81,0.00,,,0.00,weatherlink.com 1.10,2013-03-27 11:21:00,
2013-03-27 06:52:00,27.0,22.0,30.09,SE,128,0.0,4.0,80,0.00,,,0.00,weatherlink.com 1.10,2013-03-27 11:52:00,
2013-03-27 07:07:00,26.9,22.0,30.09,SSE,150,0.0,4.0,81,0.00,,,0.00,weatherlink.com 1.10,2013-03-27 12:07:00,
2013-03-27 07:22:00,26.7,22.0,30.10,SE,138,0.0,4.0,81,0.00,,,0.00,weatherlink.com 1.10,2013-03-27 12:22:00,
2013-03-27 07:37:00,26.8,22.0,30.10,SE,141,0.0,5.0,81,0.00,,,0.00,weatherlink.com 1.10,2013-03-27 12:37:00,
2013-03-27 07:52:00,27.3,22.0,30.10,SE,145,2.0,6.0,79,0.00,,,0.00,weatherlink.com 1.10,2013-03-27 12:52:00,
2013-03-27 08:07:00,27.9,22.0,30.11,SSE,167,0.0,6.0,78,0.00,,,0.00,weatherlink.com 1.10,2013-03-27 13:07:00,
2013-03-27 08:22:00,28.6,22.0,30.11,SSE,162,0.0,6.0,77,0.00,,,0.00,weatherlink.com 1.10,2013-03-27 13:22:00,
2013-03-27 08:37:00,29.5,23.0,30.11,SE,138,6.0,7.0,76,0.00,,,0.00,weatherlink.com 1.10,2013-03-27 13:37:00,
2013-03-27 08:52:00,30.7,23.0,30.11,ESE,123,4.0,7.0,73,0.00,,,0.00,weatherlink.com 1.10,2013-03-27 13:52:00,
2013-03-27 09:07:00,32.0,23.0,30.11,SE,130,4.0,8.0,70,0.00,,,0.00,weatherlink.com 1.10,2013-03-27 14:07:00,
2013-03-27 09:22:00,33.1,24.0,30.11,SSW,198,0.0,7.0,69,0.00,,,0.00,weatherlink.com 1.10,2013-03-27 14:22:00,
2013-03-27 09:37:00,33.9,24.0,30.11,SSE,168,6.0,10.0,68,0.00,,,0.00,weatherlink.com 1.10,2013-03-27 14:37:00,
2013-03-27 09:52:00,35.0,25.0,30.11,SSE,166,6.0,8.0,66,0.00,,,0.00,weatherlink.com 1.10,2013-03-27 14:52:00,
2013-03-27 10:07:00,36.0,25.0,30.11,South,179,0.0,8.0,64,0.00,,,0.00,weatherlink.com 1.10,2013-03-27 15:07:00,
2013-03-27 10:22:00,37.0,25.0,30.11,SSE,155,0.0,9.0,62,0.00,,,0.00,weatherlink.com 1.10,2013-03-27 15:22:00,
2013-03-27 10:37:00,38.6,26.0,30.10,SSE,147,1.0,8.0,60,0.00,,,0.00,weatherlink.com 1.10,2013-03-27 15:37:00,
2013-03-27 10:52:00,39.8,26.0,30.10,SSE,167,2.0,11.0,57,0.00,,,0.00,weatherlink.com 1.10,2013-03-27 15:52:00,
2013-03-27 11:07:00,41.4,26.0,30.11,SE,138,1.0,7.0,55,0.00,,,0.00,weatherlink.com 1.10,2013-03-27 16:07:00,
2013-03-27 11:25:00,42.4,26.0,30.10,South,182,3.0,8.0,53,0.00,,,0.00,weatherlink.com 1.10,2013-03-27 16:25:00,
2013-03-27 11:37:00,43.8,28.0,30.09,SE,124,4.0,8.0,54,0.00,,,0.00,weatherlink.com 1.10,2013-03-27 16:37:00,
2013-03-27 11:53:00,45.2,27.0,30.09,SSE,159,1.0,9.0,49,0.00,,,0.00,weatherlink.com 1.10,2013-03-27 16:53:00,
2013-03-27 12:08:00,45.0,28.0,30.09,SW,222,5.0,12.0,51,0.00,,,0.00,weatherlink.com 1.10,2013-03-27 17:08:00,
2013-03-27 12:23:00,45.9,28.0,30.09,South,181,1.0,11.0,49,0.00,,,0.00,weatherlink.com 1.10,2013-03-27 17:23:00,
2013-03-27 12:38:00,45.3,28.0,30.08,SE,141,5.0,10.0,51,0.00,,,0.00,weatherlink.com 1.10,2013-03-27 17:38:00,
2013-03-27 12:52:00,45.6,27.0,30.08,SE,124,0.0,11.0,49,0.00,,,0.00,weatherlink.com 1.10,2013-03-27 17:52:00,
2013-03-27 13:10:00,47.3,29.0,30.08,South,170,6.0,10.0,50,0.00,,,0.00,weatherlink.com 1.10,2013-03-27 18:10:00,
2013-03-27 13:23:00,47.1,29.0,30.07,SSE,165,0.0,10.0,50,0.00,,,0.00,weatherlink.com 1.10,2013-03-27 18:23:00,
2013-03-27 13:38:00,48.0,31.0,30.07,South,171,4.0,8.0,52,0.00,,,0.00,weatherlink.com 1.10,2013-03-27 18:38:00,
2013-03-27 13:52:00,48.3,30.0,30.06,ESE,113,8.0,8.0,50,0.00,,,0.00,weatherlink.com 1.10,2013-03-27 18:52:00,
2013-03-27 14:08:00,48.5,30.0,30.06,WSW,250,4.0,12.0,49,0.00,,,0.00,weatherlink.com 1.10,2013-03-27 19:08:00,
2013-03-27 14:23:00,49.4,30.0,30.05,SSE,154,4.0,6.0,48,0.00,,,0.00,weatherlink.com 1.10,2013-03-27 19:23:00,
2013-03-27 14:38:00,50.3,31.0,30.05,SSW,211,3.0,8.0,47,0.00,,,0.00,weatherlink.com 1.10,2013-03-27 19:38:00,
2013-03-27 14:54:00,50.4,30.0,30.04,SW,232,6.0,10.0,45,0.00,,,0.00,weatherlink.com 1.10,2013-03-27 19:54:00,
2013-03-27 15:08:00,50.4,30.0,30.04,SSE,153,0.0,8.0,45,0.00,,,0.00,weatherlink.com 1.10,2013-03-27 20:08:00,
2013-03-27 15:23:00,51.4,30.0,30.03,SSE,155,6.0,11.0,44,0.00,,,0.00,weatherlink.com 1.10,2013-03-27 20:23:00,
2013-03-27 15:38:00,51.4,30.0,30.03,South,186,3.0,10.0,44,0.00,,,0.00,weatherlink.com 1.10,2013-03-27 20:38:00,
2013-03-27 15:53:00,51.5,31.0,30.02,SE,138,1.0,7.0,46,0.00,,,0.00,weatherlink.com 1.10,2013-03-27 20:53:00,
2013-03-27 16:08:00,52.4,32.0,30.02,South,191,2.0,6.0,46,0.00,,,0.00,weatherlink.com 1.10,2013-03-27 21:08:00,
2013-03-27 16:23:00,53.1,33.0,30.01,SE,146,4.0,7.0,46,0.00,,,0.00,weatherlink.com 1.10,2013-03-27 21:23:00,
2013-03-27 16:38:00,53.5,31.0,30.01,SE,130,6.0,7.0,43,0.00,,,0.00,weatherlink.com 1.10,2013-03-27 21:38:00,
2013-03-27 16:53:00,53.5,31.0,30.01,SSE,166,0.0,8.0,42,0.00,,,0.00,weatherlink.com 1.10,2013-03-27 21:53:00,
2013-03-27 17:08:00,53.1,32.0,30.01,South,169,0.0,6.0,44,0.00,,,0.00,weatherlink.com 1.10,2013-03-27 22:08:00,
2013-03-27 17:23:00,53.3,31.0,30.01,SSE,153,1.0,9.0,43,0.00,,,0.00,weatherlink.com 1.10,2013-03-27 22:23:00,
2013-03-27 17:38:00,53.0,30.0,30.01,SSW,213,4.0,10.0,42,0.00,,,0.00,weatherlink.com 1.10,2013-03-27 22:38:00,
2013-03-27 17:53:00,52.6,31.0,30.01,SSE,152,4.0,6.0,44,0.00,,,0.00,weatherlink.com 1.10,2013-03-27 22:53:00,
2013-03-27 18:08:00,52.1,31.0,30.02,SE,142,4.0,8.0,45,0.00,,,0.00,weatherlink.com 1.10,2013-03-27 23:08:00,
2013-03-27 18:23:00,51.6,31.0,30.02,SSE,156,0.0,8.0,46,0.00,,,0.00,weatherlink.com 1.10,2013-03-27 23:23:00,
2013-03-27 18:38:00,51.0,32.0,30.02,SSE,147,3.0,7.0,48,0.00,,,0.00,weatherlink.com 1.10,2013-03-27 23:38:00,
2013-03-27 18:53:00,50.4,31.0,30.02,SW,214,0.0,9.0,48,0.00,,,0.00,weatherlink.com 1.10,2013-03-27 23:53:00,
2013-03-27 19:08:00,49.8,32.0,30.02,South,178,6.0,9.0,50,0.00,,,0.00,weatherlink.com 1.10,2013-03-28 00:08:00,
2013-03-27 19:23:00,48.9,31.0,30.02,SW,224,3.0,8.0,51,0.00,,,0.00,weatherlink.com 1.10,2013-03-28 00:23:00,
2013-03-27 19:38:00,48.1,31.0,30.03,SSE,166,0.0,5.0,52,0.00,,,0.00,weatherlink.com 1.10,2013-03-28 00:38:00,
2013-03-27 19:53:00,47.4,31.0,30.03,SSE,155,4.0,7.0,53,0.00,,,0.00,weatherlink.com 1.10,2013-03-28 00:53:00,
2013-03-27 20:08:00,46.8,31.0,30.04,SSE,158,0.0,6.0,55,0.00,,,0.00,weatherlink.com 1.10,2013-03-28 01:08:00,
2013-03-27 20:24:00,45.9,31.0,30.04,South,186,1.0,4.0,56,0.00,,,0.00,weatherlink.com 1.10,2013-03-28 01:24:00,
2013-03-27 20:39:00,45.2,31.0,30.04,SSE,166,0.0,4.0,59,0.00,,,0.00,weatherlink.com 1.10,2013-03-28 01:39:00,
2013-03-27 20:54:00,44.5,32.0,30.05,SSE,159,0.0,5.0,61,0.00,,,0.00,weatherlink.com 1.10,2013-03-28 01:54:00,
2013-03-27 21:09:00,44.1,32.0,30.05,SE,136,2.0,5.0,62,0.00,,,0.00,weatherlink.com 1.10,2013-03-28 02:09:00,
2013-03-27 21:24:00,43.7,32.0,30.06,SE,139,2.0,4.0,63,0.00,,,0.00,weatherlink.com 1.10,2013-03-28 02:24:00,
2013-03-27 21:39:00,43.3,32.0,30.06,South,179,1.0,6.0,65,0.00,,,0.00,weatherlink.com 1.10,2013-03-28 02:39:00,
2013-03-27 21:54:00,42.9,32.0,30.06,SSE,148,1.0,6.0,66,0.00,,,0.00,weatherlink.com 1.10,2013-03-28 02:54:00,
2013-03-27 22:09:00,42.6,32.0,30.07,SSE,167,1.0,6.0,67,0.00,,,0.00,weatherlink.com 1.10,2013-03-28 03:09:00,
2013-03-27 22:24:00,42.1,33.0,30.07,SSE,158,0.0,7.0,69,0.00,,,0.00,weatherlink.com 1.10,2013-03-28 03:24:00,
2013-03-27 22:39:00,41.6,32.0,30.07,SSE,166,0.0,8.0,70,0.00,,,0.00,weatherlink.com 1.10,2013-03-28 03:39:00,
2013-03-27 22:53:00,41.2,32.0,30.08,SE,135,0.0,10.0,71,0.00,,,0.00,weatherlink.com 1.10,2013-03-28 03:53:00,
2013-03-27 23:09:00,40.5,32.0,30.08,SSE,161,2.0,7.0,72,0.00,,,0.00,weatherlink.com 1.10,2013-03-28 04:09:00,
2013-03-27 23:24:00,40.1,32.0,30.08,South,175,3.0,7.0,73,0.00,,,0.00,weatherlink.com 1.10,2013-03-28 04:24:00,
2013-03-27 23:39:00,39.7,32.0,30.08,SSE,153,2.0,5.0,74,0.00,,,0.00,weatherlink.com 1.10,2013-03-28 04:39:00,
2013-03-27 23:54:00,39.3,32.0,30.08,SSE,153,0.0,6.0,74,0.00,,,0.00,weatherlink.com 1.10,2013-03-28 04:54:00,